Tracking 31027 objects as of 19-Jul-2025
HD Live streaming from Space Station
objects crossing your sky now

STARLINK-30088

Track STARLINK-30088 now!
10-day predictions
STARLINK-30088 is classified as:


NORAD ID: 57462
Int'l Code: 2023-107F
Perigee: 565.3 km
Apogee: 567.2 km
Inclination: 43.0 °
Period: 95.8 minutes
Semi major axis: 6937 km
RCS: Unknown
Launch date: July 28, 2023
Source: (TBD)
Launch site: AIR FORCE EASTERN TEST RANGE (AFETR)
Your satellite tracking list
ONEWEB-0142
Track 1 satellite(s)




NASA's NSSDC Master Catalog

Two Line Element Set (TLE):
1 57462U 23107F   25199.62995598 -.00000040  00000-0  12100-4 0  9999
2 57462  43.0022 170.8771 0001369 294.8142  65.2558 15.02536085109889
Source of the keplerian elements: AFSPC